Weather in Presidencia Roque Sáenz Peña

Argentina     26°48′44″S   60°25′16″W
temp.,
°C
wind,
m/s
gust,
m/s
humid.,
%
clouds,
%
prec.,
mm/h
press.,
hPa
HPBL,
m
6 may, thu
thu600:00+11ssw4997100 2.0 1026584
03:00+11sw4996100 3.3 1025488
06:00+11sw3993100 0.2 1025403
09:00+11ssw3991100 0.2 1028504
12:00+16s47541 0.0 10271002
15:00+18s45440 0.0 10251310
18:00+15s23630 0.0 102446
21:00+10sse22680 0.0 102512
7 may, fri
fri700:00+8ese11770 0.0 102610
03:00+7se22780 0.0 102413
06:00+6ese22812 0.0 102423
09:00+10e23710 0.0 1026167
12:00+16ene3450100 0.0 1025814
15:00+19e344415 0.0 10221065
18:00+15ese226515 0.0 102130
21:00+11ene247964 0.0 102360
8 may, sat
sat800:00+9e35845 0.0 102483
03:00+8e228898 0.0 102331
06:00+7e359171 0.0 102289
09:00+11ene367449 0.0 1023187
12:00+19ne34475 0.0 1023749
15:00+22ene23391 0.0 10191182
18:00+17e34620 0.0 101851
21:00+13e34720 0.0 101971
9 may, sun
sun900:00+12e36750 0.0 1019102
03:00+12e23760 0.0 101840
06:00+14ene2770100 0.0 1017176
09:00+16ene2668100 0.0 1018202
12:00+22ne255743 0.0 1018555
15:00+27ne34460 0.0 10141428
18:00+23ese34690 0.0 101468
21:00+19se35831 0.0 101687
10 may, mon
mon1000:00+17se36910 0.0 1016125
03:00+17e389298 0.0 1016154
06:00+18s1283100 0.0 101534
09:00+19se2281100 0.0 101678
12:00+21se2276100 0.0 1016185
15:00+25sse115697 0.0 1014661
18:00+22s36765 0.0 1013160
21:00+18sse4118513 0.0 1015300